Location: Noyers
(47.2770°N, 1.4032°E)
Time: 23:39:15
(UTC+00:00)

Meteor 2-9 Rocket - Pass Details

Date: 15 May 2026
Orbit: 790 x 893 km, 81.3° (Epoch: 11 June)

Event Time Altitude Azimuth Distance (km) Brightness Sun altitude
Rises 22:32:04 0° 351° (N) 3,322 8.7 -21.4°
Reaches altitude 10° 22:34:29 10° 356° (N) 2,397 7.6 -21.5°
Maximum altitude 22:39:48 57° 75° (ENE) 967 4.4 -21.8°
Enters shadow 22:41:21 42° 127° (SE) 1,162 4.5 -21.9°
